sat.trackr.live / text

‹ back to catalog

STARLINK-6280

NORAD 56531 · 2023-065AE

PAYLOAD ACTIVE UNKNOWN

§ Identity

Operator
Country
US
Launch date
2023-05-14
Launch site
AFETR
Launch vehicle
Mass (kg)
RCS (m²)

Purposes: comms

External: N2YO · Heavens-Above · Gunter

§ Orbital elements

Epoch: 2026-05-24T23:59:53.477664Z

Period
94.27 min
Inclination
43.0055°
Eccentricity
0.0001311
Mean motion
15.27578070 rev/d
Perigee alt
482.2 km
Apogee alt
484.0 km
Semi-major
6,861.2 km
B*
3.1914e-5
RAAN
127.3731°
Arg perigee
277.5032°
Mean anomaly
82.5671°
Rev number
16,843

§ Raw data

STARLINK-62801 56531U 23065AE  26144.99992451  .00000616  00000+0  31914-4 0  99952 56531  43.0055 127.3731 0001311 277.5032  82.5671 15.27578070168438

JSON: /api/v1/satellites/56531 · /tle

For live sub-satellite position, see the globe view (requires WebGL).

§ Visibility from observer

Set your observer location to see the next 7 days of passes ≥ 10°. The values pass through the URL so the page stays shareable.

No JS? Fill the form by hand. The geolocation button needs JavaScript.